Theta_e
327 327 326 328 329 329 331 329 328 330 330 329 328 327 327 327 325 325 325 326 328 328 327 328 328 327 327 327 327 328 327 328 329 329 329 328 328 325 320 319 319 317 316 317 317 314 311 310 308 306 306 306 305 305 306 305 306 305 305 305 305 305 305 305 305 307 307 308 308 309 310 311 312 313 313 313 314 314 314 312 308 305 304 304 303
331 329 325 327 330 330 330 330 329 329 330 328 327 327 327 327 326 325 325 325 327 327 327 328 328 328 327 326 327 328 327 327 328 329 329 328 328 326 321 321 322 321 319 318 320 319 316 313 312 310 309 307 306 306 305 306 306 305 305 305 305 305 305 305 305 305 306 307 308 308 309 310 311 313 313 313 313 314 314 313 311 307 305 304 303
331 328 325 330 332 330 330 330 330 328 328 326 326 327 327 326 325 325 325 326 326 327 327 327 328 328 327 327 326 327 328 328 328 328 328 328 328 328 325 321 322 324 323 321 321 322 321 318 315 314 313 311 309 308 306 306 305 305 305 305 305 305 305 305 305 305 305 306 307 308 309 309 311 312 312 313 313 313 314 314 312 310 307 305 304
327 326 329 333 331 329 329 329 330 329 326 324 325 326 326 325 324 324 324 325 325 324 325 326 327 327 327 327 326 327 327 327 328 328 328 327 328 328 328 325 322 324 325 324 322 322 323 322 320 318 316 315 313 310 308 307 306 306 305 305 305 305 305 305 305 304 304 305 306 307 308 309 310 312 312 313 313 313 313 313 313 312 309 306 304
326 327 329 330 328 328 329 330 331 329 326 324 324 326 326 325 323 323 322 323 323 322 321 323 325 326 326 327 327 327 327 327 327 328 328 327 327 328 328 327 326 327 326 325 324 323 324 324 324 323 320 319 316 314 311 309 307 306 305 305 305 305 305 305 305 305 304 304 304 305 307 308 309 311 312 313 313 313 313 313 314 312 311 308 305
328 327 327 327 326 327 328 329 330 328 326 324 325 326 327 326 325 324 323 323 324 323 322 322 323 326 326 326 328 327 327 327 327 327 328 327 328 328 328 328 328 329 329 326 325 324 324 324 325 325 324 322 320 317 314 311 310 309 307 305 305 304 305 304 305 305 304 304 304 305 305 307 309 310 311 312 312 313 313 313 313 313 311 309 307
328 328 326 326 326 327 326 328 330 328 326 324 325 326 327 327 327 327 326 325 325 323 323 324 324 325 325 325 326 327 327 326 326 326 327 327 327 327 327 328 328 328 330 330 328 326 325 324 325 326 325 325 323 320 317 315 314 313 311 308 306 304 304 304 304 305 304 304 304 305 304 306 307 309 311 312 313 313 313 313 313 313 312 310 309
327 327 326 326 326 327 326 327 330 328 326 325 325 326 327 327 327 327 328 327 327 325 325 326 326 326 326 326 325 326 326 327 326 324 326 327 327 327 326 326 327 327 328 328 330 329 328 325 325 326 326 326 325 323 321 319 318 316 314 313 311 307 305 304 303 304 304 304 305 304 304 305 306 308 310 311 313 313 313 313 313 313 312 311 310
327 327 327 328 328 327 326 327 329 328 328 326 325 326 326 326 326 325 326 326 327 328 328 327 327 327 327 327 326 326 325 326 327 325 326 326 325 326 326 325 326 326 325 326 328 330 329 327 325 325 326 327 326 325 324 323 322 320 318 317 316 314 311 309 307 306 305 305 306 305 305 305 306 307 309 311 312 312 313 313 313 313 312 312 310
326 326 327 328 328 328 326 326 327 328 328 327 326 326 325 325 325 324 325 325 325 326 327 326 326 327 326 326 327 327 327 327 327 326 326 326 325 325 327 327 327 325 324 325 326 327 329 329 327 326 326 326 327 326 325 324 324 324 322 321 320 319 319 317 315 314 312 310 309 309 308 306 306 306 308 310 312 313 313 313 313 313 313 312 311
325 325 326 327 328 328 327 327 328 328 329 328 326 325 326 325 325 325 325 326 327 326 326 326 325 325 326 326 326 327 329 329 328 327 327 327 327 327 328 328 326 325 325 325 326 327 327 328 329 328 327 326 326 327 326 324 324 324 325 325 323 322 323 322 321 319 317 314 312 312 313 311 307 306 307 309 311 313 313 313 313 313 313 313 312
320 320 321 323 324 326 327 327 328 328 328 328 327 326 325 326 327 327 327 327 327 327 328 327 325 325 325 326 326 326 328 330 328 328 328 328 328 328 329 329 327 326 325 325 326 327 325 323 325 327 328 328 326 326 326 324 323 324 325 325 325 325 325 325 324 322 320 318 315 313 317 319 314 309 307 308 310 312 313 313 313 312 313 313 313
312 313 315 318 319 322 325 326 327 328 328 328 328 327 326 327 328 328 328 327 326 327 328 327 325 325 325 325 326 326 328 328 328 328 329 329 329 330 330 330 330 328 327 326 325 325 325 324 324 326 327 327 327 326 326 326 323 322 323 325 326 327 326 326 326 324 323 321 319 316 317 322 321 312 307 307 308 311 313 313 313 313 312 313 313
307 308 312 316 317 319 321 323 325 325 325 326 327 328 328 328 328 327 327 326 325 326 326 326 325 325 324 323 325 325 326 327 327 328 329 329 330 330 330 330 330 330 329 328 325 324 326 327 327 327 327 328 327 327 327 327 324 320 322 326 327 327 327 327 326 326 325 323 322 321 318 320 323 317 310 309 308 308 312 313 313 313 312 313 313
311 311 314 318 319 320 318 318 321 321 321 323 325 327 328 328 327 327 328 327 327 326 325 325 326 325 323 323 325 325 325 325 326 327 327 327 327 327 329 330 330 330 330 330 328 326 327 328 328 327 327 328 327 327 327 328 325 320 322 327 327 328 328 328 328 327 326 325 323 324 322 319 321 321 317 316 314 311 310 311 313 313 313 313 313
315 317 318 319 320 321 319 317 317 317 319 321 323 324 324 326 326 327 328 329 329 326 325 326 325 324 323 323 326 326 326 325 326 326 324 325 326 326 327 328 329 330 331 331 330 329 328 328 329 328 328 328 328 327 327 327 326 321 322 326 327 328 328 328 329 328 327 326 325 326 326 322 321 322 321 321 321 317 312 310 311 313 314 314 314
314 316 318 319 319 320 320 319 316 315 319 320 320 321 321 322 324 325 327 329 329 326 326 327 325 325 324 323 325 327 327 326 325 324 323 324 326 326 326 327 328 329 330 331 331 331 330 329 329 328 328 329 328 328 326 325 326 324 322 324 326 327 328 328 329 328 327 327 326 326 326 325 324 323 322 323 324 323 318 314 312 312 313 313 314
312 314 317 318 318 318 319 319 318 318 319 320 320 320 319 320 321 323 324 325 326 327 328 328 327 326 325 323 324 326 328 328 327 326 325 324 325 324 325 327 328 328 328 329 330 331 330 330 329 328 327 327 328 328 327 325 325 326 325 325 326 327 327 328 328 328 328 327 326 325 325 326 325 325 323 323 324 325 323 320 315 312 312 313 314
309 311 316 318 317 318 318 318 318 317 317 318 319 318 318 319 320 321 323 323 324 325 326 326 326 326 325 325 325 326 328 327 327 327 327 326 326 324 324 326 327 327 328 328 329 330 329 328 328 328 327 327 326 327 327 327 326 326 326 326 326 327 327 328 327 326 327 327 326 325 325 325 325 325 325 322 323 325 325 324 321 315 312 313 314
306 308 312 314 314 314 314 313 314 314 314 314 314 314 315 316 315 316 319 321 322 324 324 324 325 325 326 326 326 327 327 327 326 326 326 326 327 326 324 325 325 324 326 327 328 329 328 327 327 328 329 328 327 326 326 328 329 328 327 327 327 328 328 328 326 326 326 327 326 326 325 325 324 324 325 324 323 324 325 325 324 320 315 313 314
305 305 306 307 306 306 306 306 307 308 309 308 306 306 307 308 308 308 310 313 316 320 321 321 322 324 325 324 324 324 325 325 325 325 325 325 326 325 325 325 323 322 322 324 326 327 327 327 327 327 329 328 326 326 327 327 329 329 328 328 328 329 329 328 327 327 326 326 327 326 325 326 326 325 325 325 323 323 324 324 325 324 320 316 315
305 305 304 305 304 304 304 304 304 304 305 304 303 303 303 303 303 304 304 305 307 310 312 313 315 317 318 320 320 321 322 323 323 323 323 323 324 324 324 323 322 320 318 317 319 323 326 326 326 327 327 327 327 327 328 327 327 329 330 329 329 329 329 328 327 327 328 327 327 326 326 326 326 326 326 325 324 323 323 323 325 326 324 322 318
305 305 305 305 305 305 304 304 304 304 304 304 304 304 304 304 304 304 303 303 303 303 303 304 305 306 307 309 313 315 315 317 318 317 316 317 318 319 320 319 319 318 315 313 315 319 323 323 324 326 326 327 327 327 328 328 327 328 329 329 329 329 328 328 328 328 328 328 328 327 326 325 326 326 327 326 325 324 322 322 323 325 326 325 323
306 306 305 305 305 305 305 305 304 304 305 304 304 305 305 305 305 305 305 304 304 304 303 303 303 303 303 302 304 305 305 307 308 307 308 309 309 312 314 315 316 317 316 316 317 318 320 319 320 323 325 325 326 328 328 327 327 326 326 327 328 328 328 327 327 327 327 327 328 328 327 326 325 325 326 327 327 326 324 323 322 323 324 325 325
307 306 305 305 305 305 305 305 305 305 305 305 305 305 305 305 305 305 305 305 305 305 304 304 304 304 303 303 303 303 302 303 302 303 304 304 307 312 314 312 313 314 314 314 315 315 317 319 320 321 323 323 324 325 327 327 327 326 324 322 324 326 327 328 327 327 326 327 328 328 327 327 326 326 325 326 327 327 326 325 323 322 322 323 325
309 306 306 306 305 305 305 305 305 305 304 305 305 305 305 305 305 305 305 305 305 305 304 304 304 304 304 304 303 303 303 303 302 302 303 304 307 310 310 309 309 309 310 312 314 314 315 318 319 320 320 321 322 324 325 325 326 326 323 321 321 322 324 327 328 327 327 326 326 327 327 327 327 327 326 326 326 327 327 326 325 323 322 322 324
312 307 306 306 305 306 305 305 305 304 304 305 305 305 305 305 305 305 305 305 305 304 304 304 303 303 303 303 303 303 303 303 303 303 303 304 304 304 305 307 310 309 309 310 312 314 316 316 317 317 319 320 322 323 323 323 323 324 322 319 319 321 322 324 326 326 327 326 326 326 326 327 327 327 327 326 326 326 327 327 326 326 324 322 323
313 308 306 307 306 306 306 305 305 305 304 304 304 304 304 304 305 305 305 305 305 304 304 303 303 303 302 302 302 302 302 303 303 303 303 303 303 303 303 307 311 312 312 311 311 313 315 317 318 317 318 320 321 321 322 322 322 322 322 319 319 322 324 324 324 325 326 326 327 326 326 326 326 326 327 327 326 326 326 326 326 327 326 323 322
311 309 308 307 306 306 306 306 306 305 305 304 304 304 304 304 304 304 305 305 304 304 304 303 303 303 302 302 302 302 302 301 302 302 302 302 303 302 303 305 309 311 312 313 313 313 312 314 316 317 318 319 321 321 322 322 321 322 322 322 322 323 324 325 324 325 326 326 327 326 326 326 326 326 326 327 327 327 326 327 326 326 326 325 323
311 311 309 308 307 306 306 306 306 306 305 305 304 304 304 304 304 304 304 304 304 304 304 304 303 303 302 302 301 301 301 301 301 301 301 301 302 302 303 305 308 310 312 313 313 313 312 312 314 316 319 320 320 320 320 321 321 320 321 322 322 322 322 323 323 323 323 324 325 326 326 326 326 326 327 327 327 327 327 327 327 326 326 326 324
312 311 311 310 308 307 306 306 306 306 306 306 305 305 304 304 304 304 304 304 304 304 304 304 304 303 303 302 301 301 300 300 301 300 300 301 301 302 304 305 306 307 309 311 313 313 313 313 313 312 313 315 315 314 315 316 317 317 318 320 320 321 320 320 320 319 319 318 320 322 324 325 326 326 326 326 327 327 327 327 327 327 327 326 326
312 312 312 311 311 309 307 307 306 306 306 306 306 306 305 305 304 304 304 304 304 304 304 304 304 303 303 302 301 301 300 300 301 301 301 301 300 300 302 302 303 303 304 308 311 312 311 311 310 309 311 311 310 309 311 313 315 316 318 319 319 319 318 318 319 319 318 316 315 316 318 320 322 324 325 326 326 327 327 327 327 327 327 327 327
313 312 312 312 312 311 309 308 307 307 306 307 307 307 306 306 305 304 304 303 303 304 304 304 304 303 303 301 301 301 300 299 299 301 304 304 303 303 304 303 304 305 305 306 309 311 310 310 310 310 310 308 307 309 311 313 315 316 317 318 319 319 319 320 320 320 319 318 316 316 316 316 316 318 320 323 325 325 326 327 327 327 327 327 327
314 313 313 312 312 312 311 310 308 308 307 307 307 307 307 307 307 306 305 304 303 303 303 303 303 303 303 302 301 300 300 298 297 300 304 305 304 306 306 306 305 305 304 304 306 308 308 308 308 308 307 307 307 308 309 309 310 311 313 315 316 317 317 318 319 320 320 318 316 317 318 317 315 315 317 319 322 324 325 326 327 327 327 327 327
314 314 313 313 313 313 312 311 310 309 308 308 308 308 308 307 307 307 306 305 304 303 303 303 303 303 303 302 301 300 299 298 297 298 301 303 304 306 306 306 305 305 303 302 302 304 305 305 305 306 307 307 307 306 305 305 305 306 307 309 312 314 315 316 317 318 319 317 314 315 318 318 317 317 317 317 319 322 323 325 327 327 327 327 327
315 315 315 313 313 313 313 312 311 311 310 310 310 309 309 309 308 308 307 306 305 303 303 303 303 303 303 302 301 300 298 298 297 298 300 302 302 303 304 305 305 306 305 304 304 304 304 305 305 305 305 305 305 305 305 304 305 306 307 308 310 312 314 315 317 317 318 318 314 312 316 320 319 318 318 318 318 320 322 324 325 326 327 327 327
315 316 316 315 314 313 313 313 312 312 311 311 310 310 310 310 310 309 308 306 305 304 303 303 303 303 302 301 300 299 298 297 296 297 299 299 298 299 300 302 303 305 305 306 306 305 306 306 306 305 304 303 303 304 303 303 305 307 309 311 312 313 314 315 316 317 317 316 313 308 308 315 319 319 318 317 318 319 320 322 324 326 327 327 327
316 317 316 316 314 313 313 313 313 312 312 312 311 311 311 311 311 310 309 306 305 304 303 303 303 302 301 300 298 297 296 296 296 296 296 296 297 297 298 299 300 301 302 303 303 304 305 305 306 306 306 305 305 304 304 304 304 305 306 308 310 311 313 314 315 316 316 316 315 311 306 307 315 320 320 318 318 318 318 320 322 324 326 327 327
315 316 317 316 315 314 314 313 313 313 313 312 311 311 311 311 312 311 309 307 305 304 303 302 302 302 300 298 297 296 295 295 295 294 294 294 295 296 298 300 301 301 301 301 301 302 303 303 304 305 306 306 306 306 306 306 305 305 305 307 310 312 313 315 315 316 316 316 317 315 311 307 309 316 320 319 318 318 317 318 319 321 324 326 327
316 316 316 316 315 314 314 314 314 313 313 312 312 311 311 312 312 311 309 306 305 303 303 303 302 301 299 297 295 295 294 294 294 293 293 293 294 294 296 299 300 301 302 302 302 302 302 303 304 304 305 305 306 306 306 307 307 308 308 309 311 311 312 313 314 315 316 316 316 317 315 312 310 312 317 319 319 319 318 318 318 319 321 324 326
318 317 317 316 315 314 314 314 314 313 313 313 312 312 312 311 311 310 307 305 304 303 302 302 300 299 297 295 294 294 293 293 293 293 292 293 293 293 294 295 297 299 301 302 302 302 302 303 304 304 304 305 305 305 306 307 308 309 309 309 308 307 307 309 311 313 314 314 315 316 316 315 314 315 316 317 318 319 319 319 319 318 319 321 324
320 319 318 317 316 315 314 314 314 314 313 312 312 312 311 311 310 308 306 304 303 303 301 300 298 296 295 294 294 294 294 293 292 292 292 293 293 293 294 294 295 296 298 299 301 301 302 303 303 303 304 304 305 305 306 306 306 307 308 308 307 307 307 308 310 311 312 313 314 315 315 315 316 316 316 315 316 317 318 319 319 319 319 320 322
319 319 318 317 316 314 314 314 314 314 313 312 311 311 311 310 308 306 305 304 303 302 300 298 296 295 295 294 294 293 293 293 292 292 292 293 293 293 294 294 294 294 295 296 297 298 300 301 302 302 303 303 304 304 305 305 305 305 306 307 307 308 308 308 309 310 311 313 314 314 315 315 315 315 316 316 317 317 318 317 317 319 319 320 321
318 318 318 317 316 314 313 313 314 313 312 312 311 310 310 308 307 305 304 303 302 301 299 297 295 295 295 294 293 292 292 292 292 292 292 293 293 294 294 294 295 295 295 295 295 296 297 298 300 301 302 303 303 303 304 304 304 305 305 306 306 307 307 308 308 309 310 311 312 312 313 314 314 314 315 315 316 317 317 316 316 318 320 320 321
318 317 317 316 315 314 313 313 312 312 311 312 311 309 308 307 306 304 303 302 301 299 297 296 295 295 294 293 293 293 293 293 293 293 293 293 293 293 293 294 295 295 295 295 295 295 295 296 297 298 299 300 301 302 303 303 303 303 303 304 305 305 306 307 307 308 308 309 310 311 311 312 312 313 313 314 314 315 316 315 315 318 320 320 321
318 318 317 316 315 314 313 313 313 312 310 310 309 308 307 306 305 304 302 301 299 297 296 295 294 293 293 293 293 293 293 293 293 293 293 293 293 293 293 294 295 295 295 295 296 296 296 296 296 296 297 298 299 300 301 301 301 301 301 302 303 303 304 305 306 306 306 307 308 308 309 309 310 312 312 313 313 314 314 313 314 318 319 318 318
316 318 317 316 315 314 312 312 313 312 309 308 308 307 305 305 304 303 301 299 297 296 295 294 293 293 293 293 293 293 293 293 294 293 293 292 292 293 293 294 294 295 295 295 296 297 297 298 298 297 298 298 298 298 299 299 300 300 300 300 301 301 302 302 303 303 304 305 305 306 308 308 309 310 311 312 312 313 314 312 312 315 318 317 316
315 316 316 315 315 314 312 311 311 311 309 308 307 306 305 304 302 300 298 297 296 296 296 295 294 295 295 294 294 294 294 293 293 293 292 292 293 293 294 294 294 295 295 296 296 296 296 297 297 298 298 298 298 298 298 298 299 299 299 299 299 300 300 301 301 302 303 304 304 305 306 307 308 309 310 311 311 312 312 311 310 311 315 316 315
314 316 316 315 314 313 311 310 310 309 307 306 305 305 303 302 299 297 297 297 297 297 297 296 296 296 296 295 294 294 293 293 293 292 292 293 293 294 294 294 294 295 295 295 295 295 295 295 295 295 296 296 297 297 297 297 298 298 298 298 298 298 299 300 300 301 302 303 304 304 306 307 308 308 309 309 310 310 311 310 309 308 310 312 313
314 314 315 314 313 312 310 309 308 307 305 305 304 303 301 298 297 296 296 297 297 297 297 297 297 297 297 296 295 293 293 293 293 293 293 294 294 294 294 294 294 294 295 295 295 295 295 295 294 294 294 294 295 295 295 295 296 297 297 297 297 297 298 298 299 300 301 302 303 304 305 306 307 308 308 309 309 309 309 309 309 308 306 307 309
312 313 314 313 312 311 310 308 307 305 304 304 302 299 297 296 295 295 295 296 297 297 297 297 297 297 297 296 295 294 294 294 294 293 294 294 294 294 293 293 293 293 294 294 294 294 294 294 294 294 294 294 294 294 295 295 295 295 295 295 296 296 297 297 298 299 300 301 303 303 304 305 306 307 307 308 308 309 309 308 308 308 307 306 306
Wind_Speed
8 9 9 8 6 4 4 8 8 6 7 6 5 5 5 6 7 8 11 11 10 10 10 9 8 8 8 9 8 7 8 8 8 6 5 4 4 4 1 3 3 3 4 5 4 4 5 4 4 3 2 2 3 4 4 5 5 6 5 3 1 1 2 3 4 3 3 3 2 2 2 3 4 6 7 9 11 13 15 16 16 15 15 14 13
8 10 9 7 7 6 6 8 9 8 8 6 5 5 5 6 6 7 9 9 9 10 10 10 9 8 8 9 9 9 9 9 8 7 6 6 5 5 3 1 1 2 2 3 4 5 4 4 4 3 3 2 2 3 4 4 6 7 7 6 4 3 2 3 3 3 3 3 2 2 1 2 3 4 5 7 9 11 13 14 15 15 14 13 12
12 12 9 7 7 8 9 9 10 11 9 8 6 4 3 4 6 8 9 9 10 10 10 10 10 10 9 9 10 10 10 10 9 8 7 7 6 6 5 4 3 1 1 1 2 4 4 3 3 3 3 2 3 3 4 4 6 7 8 8 7 5 3 3 3 4 4 4 3 3 2 1 1 2 3 5 6 8 10 12 13 14 13 13 12
16 13 8 7 9 10 11 10 12 14 12 10 8 4 3 4 6 8 10 11 11 11 12 11 10 11 10 10 11 11 11 11 10 10 9 8 7 7 7 6 5 4 2 1 0 1 3 3 2 3 2 2 3 4 5 5 6 7 9 10 9 8 6 5 4 5 5 4 4 4 3 2 1 1 1 3 5 6 8 10 11 12 12 12 12
15 12 9 8 9 9 9 10 12 16 14 12 9 6 5 4 5 7 9 9 9 10 12 11 10 10 11 11 11 11 12 12 12 11 10 9 8 7 8 7 7 6 5 3 2 1 1 2 2 2 1 1 2 4 5 6 7 7 8 9 10 10 9 7 6 6 6 6 5 5 5 4 3 2 0 1 3 4 6 8 9 10 11 11 11
13 12 10 10 9 8 7 8 11 17 15 13 12 9 7 6 6 7 7 8 8 8 8 9 9 9 9 9 10 12 13 13 13 12 11 10 9 9 8 8 8 8 7 6 5 4 3 1 1 2 1 1 1 3 5 6 6 6 7 8 9 10 10 9 8 7 7 7 7 6 6 5 5 4 2 1 2 2 4 5 7 8 9 10 10
11 11 10 10 10 9 8 6 10 17 16 15 14 11 9 8 8 8 8 8 8 8 8 9 8 8 7 8 9 11 13 14 14 14 12 11 11 10 9 9 9 9 9 8 8 7 6 4 3 2 2 2 2 3 3 5 5 5 5 6 7 8 9 10 10 9 8 8 8 8 7 6 6 5 4 3 2 2 2 3 5 7 8 8 9
11 11 10 9 9 9 9 7 12 16 16 16 15 13 12 11 11 10 10 10 8 8 9 9 8 9 9 9 9 10 11 12 14 14 12 11 11 10 10 10 10 11 10 9 9 9 8 7 6 4 3 2 2 2 2 4 5 4 4 5 5 6 7 8 9 9 9 9 9 9 8 8 7 7 6 4 4 3 2 2 3 5 7 7 8
10 11 11 10 9 10 10 9 12 16 17 17 16 15 15 14 14 13 12 11 10 9 10 9 9 10 10 9 9 10 11 10 11 12 11 12 11 10 10 10 11 12 11 9 9 10 9 8 8 7 6 5 3 2 2 2 4 4 3 4 4 4 4 5 6 8 8 8 9 10 9 9 9 8 7 6 5 4 4 2 2 3 5 6 7
7 7 7 8 9 10 10 10 11 14 17 18 17 17 16 16 16 15 14 14 13 12 13 13 13 13 13 13 11 9 9 9 11 12 12 12 11 10 10 11 11 11 10 10 10 10 10 9 9 10 9 7 6 4 4 3 3 4 3 3 4 4 3 3 3 4 6 7 8 9 9 9 9 9 8 7 6 5 5 4 2 2 4 5 6
6 6 5 5 7 8 9 10 10 12 16 18 18 18 17 17 16 16 17 16 14 14 16 15 14 13 15 16 15 12 8 8 10 11 12 11 11 12 12 12 11 11 11 11 11 10 10 10 10 11 11 10 8 7 7 6 5 4 3 4 3 3 3 1 1 2 3 5 7 8 8 8 8 9 9 8 7 7 6 5 4 2 2 3 5
9 8 7 5 6 7 7 8 8 9 13 16 18 19 18 17 17 17 17 16 15 15 14 13 12 12 14 14 13 14 10 8 10 9 10 11 11 12 12 12 12 12 12 11 11 10 10 11 11 11 11 11 12 11 10 10 8 6 4 4 3 3 3 2 1 2 2 3 5 7 9 8 7 7 9 9 8 7 7 6 5 4 3 2 3
9 9 8 6 6 6 7 7 6 8 10 11 14 16 18 18 18 18 17 16 15 14 12 9 9 10 12 11 11 15 12 10 11 9 7 9 10 11 11 12 12 13 13 12 12 12 11 11 11 11 10 11 13 13 13 12 12 10 8 6 4 5 5 3 2 2 3 3 4 6 9 10 8 6 7 9 9 8 8 7 6 5 4 3 3
7 8 7 6 6 7 8 7 6 8 9 9 11 12 14 16 16 17 17 17 17 14 12 10 9 8 9 10 10 13 14 14 14 10 8 7 8 9 10 12 13 12 13 13 13 13 13 13 12 12 10 10 11 13 14 14 13 12 10 8 6 6 6 6 5 3 4 5 5 5 7 10 10 7 6 7 8 8 8 8 7 6 5 4 3
3 4 4 4 5 6 8 8 7 7 7 8 9 9 10 11 12 14 16 17 17 15 13 11 9 7 8 9 8 8 11 14 14 12 11 11 10 10 9 12 13 12 12 14 14 14 14 14 14 14 13 11 11 11 13 13 13 11 10 9 8 8 8 9 8 7 6 6 6 6 6 9 11 11 9 7 6 7 8 8 8 7 6 5 4
4 4 4 3 3 3 5 7 8 7 7 6 7 7 8 8 8 10 12 14 15 15 14 12 11 10 9 8 7 6 6 8 10 11 11 10 10 9 8 9 10 10 11 13 14 15 14 14 14 14 13 12 12 12 13 13 13 13 12 11 10 10 10 11 11 10 9 8 8 9 9 9 11 13 13 10 8 7 7 8 9 9 8 7 5
5 6 6 5 4 4 3 5 7 7 6 5 5 6 6 7 6 6 8 10 13 15 14 12 13 13 12 9 7 5 5 6 8 9 8 7 6 6 7 7 7 9 10 11 13 13 14 14 14 14 14 14 13 13 14 15 15 16 14 13 12 12 12 12 12 12 11 10 9 11 12 12 12 14 15 14 11 10 8 8 8 10 10 9 8
7 7 8 7 5 5 5 5 5 5 4 4 3 3 3 4 5 5 6 7 9 11 11 12 13 14 16 15 12 10 7 6 7 7 7 7 7 6 7 6 6 7 6 8 9 10 11 12 14 15 15 16 15 14 15 15 16 17 16 15 14 12 13 13 13 12 12 12 11 12 14 14 14 15 16 16 15 14 12 11 10 11 11 11 10
8 8 9 8 6 6 6 6 6 5 5 5 4 4 3 2 2 3 3 3 4 6 8 10 9 9 12 14 14 13 12 10 9 8 7 8 8 7 8 8 9 8 7 7 7 8 11 12 12 12 12 13 13 14 15 15 16 17 17 16 14 13 13 14 14 13 14 14 14 14 15 16 16 16 16 17 18 18 16 14 13 13 13 13 12
8 9 9 8 8 7 7 8 8 7 6 6 5 5 3 2 2 3 3 3 3 3 4 5 3 2 5 5 5 7 8 9 9 9 8 8 8 8 9 10 11 11 11 9 8 9 12 13 12 11 11 12 12 13 13 13 14 16 16 16 16 16 15 16 15 15 15 16 16 16 16 17 17 17 17 17 18 19 19 18 17 15 14 14 13
8 8 8 8 9 8 8 8 8 8 7 6 5 4 4 3 3 4 4 4 5 4 2 2 1 1 1 1 2 3 4 5 7 7 7 8 9 8 8 10 12 13 12 12 12 12 14 15 14 12 12 14 14 13 13 13 12 13 15 17 19 19 18 17 17 17 17 17 18 17 18 20 20 19 18 17 18 19 20 20 20 18 17 16 15
7 7 7 7 7 7 7 7 7 8 7 6 6 6 6 5 4 3 1 2 4 5 4 4 4 4 4 4 3 3 4 4 5 5 6 7 8 8 8 9 11 14 16 17 16 15 14 14 15 14 13 14 14 13 13 14 13 12 13 15 17 17 17 18 18 18 18 18 19 19 18 21 22 21 20 19 18 19 20 20 21 21 20 18 17
5 5 5 5 6 6 5 5 6 6 6 7 7 7 7 7 7 6 5 3 2 1 2 3 4 5 6 7 6 5 6 6 6 8 8 9 10 10 10 9 11 14 17 18 17 17 15 15 15 15 13 13 12 12 12 13 13 13 14 15 15 16 16 16 16 17 17 18 21 21 20 20 21 22 22 21 20 20 20 20 20 21 21 21 20
4 4 4 4 4 4 4 4 4 5 5 6 6 6 6 7 7 7 7 6 5 5 4 3 3 4 5 6 7 8 10 10 11 11 11 11 12 12 12 11 11 13 13 14 15 16 15 15 15 14 13 13 12 11 11 12 12 14 14 15 16 17 18 16 15 14 13 14 19 22 21 20 21 21 21 22 22 21 21 20 21 21 22 22 23
5 3 3 2 2 2 3 3 3 3 4 5 5 5 5 6 6 6 6 6 6 6 6 6 6 5 6 6 7 8 9 10 11 11 11 12 11 10 11 12 13 14 13 13 14 14 12 12 12 12 12 12 11 11 11 10 11 14 14 14 15 17 19 19 18 17 15 12 14 19 21 20 21 22 22 23 24 23 22 21 21 21 21 22 24
6 4 3 2 2 2 1 1 2 2 2 3 4 5 5 5 5 6 6 6 7 7 8 8 7 7 7 7 7 8 9 10 11 11 12 12 11 11 13 14 15 16 14 12 12 11 10 9 9 10 11 11 11 12 12 11 11 14 15 14 15 15 18 21 22 22 20 17 15 16 18 20 21 23 24 25 25 25 25 24 24 23 21 21 22
7 6 4 3 3 3 2 1 1 1 1 2 3 4 4 4 4 5 5 7 7 8 9 9 8 8 7 7 7 7 8 8 9 10 11 12 13 14 15 14 15 16 15 13 11 10 9 8 8 8 8 10 10 10 12 12 13 16 17 17 17 16 16 19 21 21 21 20 18 18 18 20 21 23 25 27 27 27 27 26 26 26 24 21 22
9 7 6 5 5 4 4 3 3 2 1 1 1 2 2 3 3 4 5 7 8 9 10 10 10 9 8 7 6 7 7 7 8 9 10 11 12 13 13 12 12 13 13 13 12 9 8 7 7 6 6 8 9 9 11 11 13 15 16 15 16 15 14 15 18 20 20 20 20 20 21 22 22 24 26 28 30 29 29 27 27 27 27 24 22
10 8 7 7 7 6 6 6 5 4 3 2 1 1 1 1 2 4 5 7 8 10 10 11 11 11 10 9 8 8 8 8 8 8 9 10 11 12 12 10 10 12 12 13 12 11 10 9 7 7 7 7 8 9 9 9 12 14 12 12 13 14 15 15 17 19 20 20 20 20 21 22 24 26 27 29 31 32 31 30 27 28 29 27 23
11 10 9 8 8 8 8 8 8 7 6 4 4 3 3 3 3 4 5 6 8 9 10 11 12 12 12 12 11 11 11 11 10 9 9 9 10 11 11 10 10 11 12 13 13 12 12 10 8 8 8 8 9 10 10 10 12 15 14 13 13 14 18 20 19 19 19 20 20 20 21 22 24 26 27 29 31 33 34 32 31 30 30 30 26
14 13 12 11 10 10 10 10 10 9 8 6 5 5 5 5 6 6 6 7 8 9 10 11 12 13 13 14 14 13 14 14 12 12 11 9 9 9 10 10 11 13 13 14 14 13 11 11 12 13 13 14 15 16 16 15 15 16 17 16 15 17 22 23 22 21 22 22 22 22 22 22 24 25 26 27 30 32 34 34 34 33 32 32 30
17 16 15 13 12 11 12 12 12 11 10 8 6 6 6 7 7 8 8 8 9 10 11 12 13 14 15 16 16 16 17 15 12 12 12 11 10 9 9 10 12 14 15 14 15 16 14 15 17 17 16 17 19 19 18 17 15 16 17 16 16 19 21 20 20 22 24 24 24 24 25 25 25 26 26 27 28 29 32 34 36 36 35 35 33
19 19 18 17 15 14 13 14 14 14 13 11 9 8 8 8 8 8 9 9 10 10 12 13 14 15 16 16 17 19 19 16 12 10 9 10 11 11 10 10 10 12 14 15 16 17 17 16 16 16 16 19 20 18 16 16 15 16 15 15 16 17 17 16 17 20 23 24 23 24 25 27 27 27 27 28 28 28 29 32 35 37 37 37 36
21 21 20 20 18 16 16 16 16 16 14 13 12 10 10 10 9 9 9 9 10 11 12 13 14 16 17 17 17 19 20 18 15 11 8 9 9 8 10 11 11 13 14 15 17 18 19 18 17 18 18 19 19 17 17 18 19 19 19 18 17 17 17 17 16 18 21 24 24 23 24 25 27 27 27 27 29 30 30 30 32 35 37 39 39
22 22 23 22 21 19 18 18 18 17 16 15 14 13 13 12 11 11 11 11 11 12 13 14 15 16 17 18 18 18 18 17 16 13 10 10 9 8 10 12 13 15 16 18 19 20 21 21 20 19 17 17 19 19 18 19 21 21 22 21 20 18 18 18 17 18 21 25 26 24 24 24 26 27 27 27 28 31 31 31 31 33 36 39 40
24 24 25 25 23 22 22 21 20 19 18 17 16 16 15 14 13 13 13 13 14 14 14 15 16 17 18 18 17 17 17 16 16 14 11 11 11 11 11 12 13 14 16 18 19 19 20 21 22 22 21 21 22 21 21 21 20 19 20 20 19 18 18 18 17 17 21 25 27 27 25 24 24 26 26 26 27 29 30 31 30 31 34 38 39
27 26 27 27 26 26 25 24 23 21 20 19 18 18 17 16 16 16 16 16 16 16 16 17 17 18 18 18 17 16 16 16 15 13 12 13 14 13 13 13 13 13 15 16 17 18 19 21 22 23 24 25 24 24 23 23 21 19 18 17 17 17 17 18 17 18 21 24 26 27 27 26 25 25 26 26 26 27 29 30 30 30 32 34 37
30 29 30 30 29 29 27 26 25 23 22 21 21 21 19 18 18 17 18 18 18 17 17 17 18 18 18 17 16 16 15 15 15 15 14 15 15 15 15 15 14 15 17 18 20 20 21 21 22 21 22 22 23 24 24 22 22 22 20 19 18 17 17 18 18 18 19 20 22 24 26 27 28 27 26 26 26 26 27 29 30 30 31 32 34
32 32 33 33 32 30 29 28 27 25 24 23 23 22 21 20 19 19 20 20 20 20 19 19 19 19 18 17 16 15 15 15 15 15 15 16 16 16 16 16 15 16 17 19 20 21 22 23 23 21 21 20 20 21 21 20 21 23 22 20 17 15 14 15 15 16 16 17 19 22 23 25 30 31 28 26 26 26 26 27 29 30 31 31 32
31 31 32 33 32 31 31 31 30 28 27 26 24 23 22 21 20 21 21 20 20 20 20 20 20 19 18 17 16 16 15 16 16 16 17 17 17 17 16 16 16 17 17 18 19 20 22 23 23 22 21 20 20 20 19 17 17 18 16 15 16 16 15 16 16 16 16 16 17 19 21 22 25 29 30 27 26 26 26 27 28 29 31 32 32
27 29 33 36 34 33 34 33 32 30 29 27 26 24 23 22 21 21 21 20 20 20 20 19 19 18 18 17 17 17 17 17 18 18 18 18 19 19 19 18 17 18 18 19 19 20 21 21 22 21 21 21 20 20 19 16 15 15 15 16 20 22 22 21 20 18 18 18 18 18 19 19 19 21 25 27 28 28 28 27 28 28 29 31 33
20 23 30 34 34 35 37 35 34 32 30 29 28 26 23 22 21 21 21 20 19 19 18 17 17 17 17 17 19 20 20 19 19 20 19 19 20 20 20 20 20 20 20 21 21 21 21 22 22 22 21 21 20 19 20 19 19 19 19 19 20 20 20 20 20 19 17 17 18 18 18 17 17 18 20 23 26 28 28 28 28 28 29 30 32
18 20 24 28 31 34 36 36 34 33 32 31 29 26 23 21 21 21 20 20 19 18 17 16 15 15 16 17 19 22 23 21 21 22 22 23 23 23 23 23 23 23 24 24 25 24 23 23 23 23 23 23 21 20 20 21 21 20 19 19 18 18 18 18 18 16 14 14 15 17 18 16 16 18 18 18 20 22 25 27 27 27 28 29 31
18 21 23 24 27 31 34 36 36 34 31 29 27 25 23 22 21 20 19 19 18 17 16 16 15 14 16 19 20 22 23 23 22 23 24 25 26 27 28 27 27 26 26 26 27 27 27 27 26 25 24 23 22 21 19 19 19 19 19 19 18 18 18 19 18 17 15 14 15 17 18 17 16 17 18 18 18 19 23 26 26 25 26 29 30
16 19 19 21 26 31 35 39 39 34 28 27 27 25 23 22 21 19 17 18 17 16 16 17 17 17 18 19 20 20 21 23 24 24 24 24 26 28 29 30 30 29 29 29 29 29 29 29 31 31 29 27 25 23 20 19 20 20 21 21 20 20 20 20 21 20 18 17 17 18 20 19 17 18 19 18 17 19 25 28 25 23 25 27 28
17 18 19 21 26 31 35 38 38 32 28 27 27 24 21 20 19 17 15 16 16 16 17 18 19 19 20 19 20 20 20 22 23 23 24 26 28 29 29 29 28 28 30 30 28 27 28 27 29 32 30 28 29 27 23 21 22 23 24 24 22 21 22 22 22 22 21 20 18 19 22 21 18 19 20 19 17 20 27 31 27 24 23 24 24
18 17 18 21 26 30 33 36 35 32 28 27 24 21 18 17 16 15 15 17 17 17 18 19 19 19 19 20 22 22 22 23 23 25 28 29 31 32 31 31 30 29 28 25 22 23 24 24 25 26 25 23 25 26 24 23 24 25 25 25 23 22 23 25 24 24 23 22 20 21 24 22 19 19 19 18 18 20 23 28 29 28 25 22 21
16 15 15 21 27 30 33 34 34 32 27 23 19 16 15 14 14 14 15 15 16 16 16 17 18 17 18 21 22 23 24 24 25 28 31 32 33 33 33 32 31 28 26 24 23 24 26 27 27 27 27 26 26 26 25 24 26 27 26 24 22 22 24 25 25 24 23 22 22 22 25 24 19 20 21 18 19 24 24 23 27 29 29 26 24
14 15 18 23 28 32 34 34 32 27 21 17 15 14 13 13 13 13 12 11 12 13 14 16 17 16 18 21 23 24 26 27 28 30 33 34 34 34 33 31 29 27 24 23 23 24 27 29 31 32 34 35 35 35 34 33 32 31 31 29 25 22 25 27 27 26 23 22 22 21 24 25 21 20 21 18 20 28 27 20 23 28 29 28 28
13 15 20 27 32 35 35 32 27 21 16 13 12 12 12 11 12 11 10 10 11 12 14 16 16 16 18 21 25 29 30 30 30 32 34 35 34 31 29 28 27 25 23 21 21 22 23 25 27 29 31 31 33 34 36 37 37 36 38 38 30 26 30 31 29 27 25 24 22 20 22 25 22 21 21 19 21 28 28 23 26 29 28 28 30
15 16 22 31 36 36 33 28 21 16 13 12 11 11 11 11 11 11 10 11 13 14 15 16 16 17 18 21 25 28 29 30 31 34 36 36 32 28 25 25 26 25 22 21 21 21 21 21 22 23 24 24 24 25 27 28 28 30 37 40 34 30 33 34 30 28 27 24 20 19 23 25 22 21 22 21 21 24 24 24 26 26 24 26 28
Wind_Direction
233 234 240 245 256 280 248 229 223 214 233 231 224 247 260 251 239 235 232 220 217 220 215 217 232 233 221 220 225 227 224 219 219 218 216 210 205 214 183 128 139 135 143 148 143 126 117 121 118 125 145 185 209 225 226 224 220 214 214 221 227 186 160 158 153 157 160 138 121 103 85 74 58 48 44 45 49 51 51 50 50 50 53 56 57
229 232 242 252 261 276 273 250 231 215 222 230 237 250 260 252 233 228 228 216 215 217 214 215 224 235 229 222 224 228 229 224 222 217 218 223 213 218 248 304 166 147 148 151 161 152 128 127 131 128 134 157 177 202 214 215 212 209 211 213 221 222 184 167 163 165 174 169 159 149 125 90 66 49 42 43 47 50 51 51 51 50 51 53 56
236 244 255 260 265 279 283 265 242 226 221 223 235 245 253 242 214 210 213 207 210 213 214 216 219 228 231 226 223 227 229 226 221 218 220 225 226 227 242 270 281 243 188 144 164 169 157 140 130 131 137 158 175 189 203 208 206 205 207 208 214 221 210 185 180 183 182 183 185 180 177 155 98 59 39 41 43 47 49 50 51 50 50 51 54
242 250 255 256 271 286 286 274 246 227 218 217 224 229 219 218 202 199 205 205 210 218 219 217 218 223 226 223 221 225 229 229 224 220 222 225 231 236 238 250 264 260 247 226 143 165 172 171 153 139 131 147 180 192 200 204 207 207 205 206 210 215 219 211 195 198 198 194 195 194 192 198 188 135 35 29 36 41 44 46 48 49 49 49 51
243 247 247 255 275 285 284 279 244 220 212 208 214 218 208 212 203 192 198 206 215 223 222 221 222 226 227 223 221 222 225 230 230 223 222 226 231 238 242 244 244 245 257 261 263 283 202 188 185 180 144 118 196 203 200 202 204 208 208 208 211 214 219 222 214 206 207 206 202 203 201 203 209 195 211 352 18 31 38 41 43 45 47 47 48
244 246 245 251 266 275 280 281 233 212 207 205 209 213 203 198 193 187 191 198 209 216 217 220 225 229 232 230 225 224 223 225 229 228 226 226 231 237 238 241 240 236 243 256 264 269 268 261 226 218 244 320 261 225 206 200 197 203 211 211 212 216 218 223 226 218 214 215 211 210 207 206 213 208 205 252 323 6 27 33 37 39 42 44 46
245 248 246 248 257 263 271 265 214 204 205 205 206 207 203 195 190 192 198 204 209 214 217 219 225 233 238 240 234 230 229 226 226 228 230 233 237 240 237 235 237 233 231 242 257 264 265 268 261 243 260 292 297 268 231 212 200 191 200 209 213 215 218 223 229 229 224 221 221 218 213 210 215 215 209 215 255 303 353 18 27 31 34 38 41
246 251 249 248 249 250 258 243 211 208 208 205 204 204 204 202 199 199 203 211 216 224 230 231 237 241 245 251 248 242 239 232 230 230 231 237 239 240 241 238 238 237 230 230 241 249 256 264 264 253 246 260 289 298 277 237 222 200 177 185 201 205 212 223 234 241 239 232 228 225 220 214 215 218 218 214 229 255 286 338 10 19 25 29 32
249 251 249 246 239 238 245 236 222 219 215 210 206 205 206 207 207 208 210 217 222 230 242 249 256 261 263 262 256 250 244 235 230 229 228 233 233 233 238 240 240 241 238 233 236 239 243 256 265 259 246 243 250 267 283 257 239 233 198 167 168 171 187 210 230 247 253 248 237 232 228 221 217 218 220 219 224 238 254 275 324 3 13 19 24
255 252 243 238 233 231 234 232 229 227 224 219 212 209 211 211 213 217 220 227 231 238 249 256 262 271 277 276 267 251 245 239 229 221 219 224 227 228 232 235 235 238 239 236 239 240 240 246 257 262 255 245 241 244 250 248 240 240 227 192 162 145 153 184 220 244 255 256 247 236 231 230 223 219 221 222 224 234 246 257 270 324 358 8 15
260 261 246 231 229 231 230 228 228 227 228 225 219 217 217 216 218 224 228 236 245 251 256 259 263 274 280 282 274 251 236 237 232 224 221 221 224 227 229 232 232 233 235 236 238 241 243 244 250 259 257 246 242 248 248 241 238 241 237 227 198 163 159 158 247 274 264 259 253 236 225 233 233 225 224 224 224 231 243 251 257 269 318 352 3
259 263 262 249 240 241 233 225 219 218 224 227 227 226 226 225 226 232 238 245 251 252 257 260 263 275 283 288 277 253 240 235 234 233 233 233 232 234 235 238 238 234 233 234 236 237 240 242 247 254 255 252 251 253 255 252 243 238 237 241 237 213 197 180 245 295 290 270 261 244 227 229 241 236 229 227 226 227 238 247 252 260 276 316 344
250 249 252 248 244 247 243 232 216 208 214 222 228 228 230 233 234 239 245 250 251 244 243 249 255 267 278 286 273 257 256 251 243 238 235 240 243 245 247 248 247 243 239 236 234 233 237 239 240 244 247 255 258 253 251 251 247 241 232 228 238 240 231 221 227 263 282 282 272 254 236 229 237 243 232 228 228 227 232 242 246 254 266 287 320
235 228 223 218 220 229 238 238 230 223 218 218 222 224 228 231 236 241 243 248 251 241 231 234 245 261 273 280 277 264 256 252 252 245 232 243 255 256 258 254 249 248 247 241 233 231 237 239 238 237 234 240 253 254 249 246 247 244 232 223 231 246 251 249 250 251 259 273 273 257 242 235 235 239 233 227 230 231 232 239 244 249 258 274 299
203 202 186 183 192 206 221 228 234 238 230 224 224 225 230 233 238 243 243 248 249 237 229 229 233 249 265 274 284 279 257 247 249 249 247 260 271 272 267 260 255 251 250 247 241 235 235 238 241 243 239 234 237 246 250 250 252 243 226 227 236 243 251 254 257 258 254 265 266 254 243 237 235 235 235 230 232 239 237 239 243 246 252 264 282
118 122 125 137 152 164 199 209 213 224 224 220 217 219 227 232 242 247 243 245 241 232 231 232 229 235 244 255 270 277 260 247 245 250 258 264 270 278 275 267 262 254 249 249 250 248 245 243 243 245 244 240 234 233 236 241 250 242 224 226 237 241 249 250 253 255 254 257 257 254 250 239 232 232 235 234 233 238 237 237 241 244 249 254 262
106 115 118 120 125 130 147 173 183 198 206 200 200 205 211 218 229 243 243 241 236 233 236 236 233 235 235 237 251 256 248 250 253 259 262 247 246 276 283 277 260 251 250 249 251 255 257 254 249 248 248 247 243 239 235 231 236 241 233 228 229 235 244 245 247 248 248 251 249 249 250 245 238 235 235 235 234 233 230 226 232 240 243 245 249
100 107 109 107 113 125 123 128 151 168 162 138 139 164 178 200 208 219 237 242 237 236 241 246 243 239 238 240 246 246 240 244 254 263 266 257 257 271 280 282 268 259 256 250 251 252 253 255 252 251 253 253 248 245 244 238 236 239 241 239 234 234 241 241 239 239 239 241 241 242 245 248 247 243 239 237 235 234 232 227 226 233 238 240 241
96 98 102 106 106 113 117 120 126 132 135 131 128 133 129 133 172 194 212 230 232 226 234 249 255 240 234 240 244 245 246 246 251 258 264 268 267 268 271 272 270 268 256 242 246 251 250 251 251 253 259 260 255 248 247 247 245 243 245 250 248 242 243 241 234 233 234 234 234 237 242 246 249 247 243 238 234 234 237 238 232 232 237 239 240
93 95 99 105 107 108 111 116 121 122 128 139 145 148 144 137 170 201 201 192 189 190 213 235 260 238 218 229 243 252 254 250 252 257 263 267 269 277 282 274 269 270 266 257 255 260 263 262 257 255 258 260 259 257 254 249 248 247 244 247 248 244 241 238 233 233 235 234 232 232 234 240 245 246 245 240 234 233 238 244 242 236 238 242 242
100 100 100 100 101 102 102 106 110 111 114 123 130 131 131 141 176 209 223 223 212 207 220 229 244 248 217 237 305 304 285 265 264 261 257 266 275 285 294 287 279 277 272 268 267 271 275 272 266 259 256 259 262 261 257 252 249 249 243 239 240 240 235 231 232 235 237 235 234 231 231 236 240 244 246 243 237 235 237 242 244 242 239 241 244
110 107 106 102 98 96 94 95 97 100 99 95 92 89 89 95 97 114 155 225 231 235 255 264 269 268 257 265 304 322 304 290 290 272 253 262 276 285 295 299 296 289 281 278 277 275 275 273 270 264 257 260 263 259 256 254 249 246 245 242 239 236 230 227 229 235 237 237 236 233 231 234 238 242 245 244 240 239 239 240 242 243 241 240 242
124 118 114 108 103 100 98 97 96 94 90 84 80 78 76 76 73 71 73 69 59 329 290 281 278 276 268 265 269 276 272 271 278 274 265 266 272 279 287 295 298 294 291 291 284 274 269 268 266 263 257 255 256 255 253 252 250 246 245 244 240 235 233 231 230 234 239 241 238 232 229 230 235 240 242 243 244 243 242 239 239 241 242 242 244
147 137 130 120 113 110 107 108 105 99 98 95 89 85 79 73 69 62 54 50 45 34 22 4 331 310 298 283 276 273 269 268 271 274 271 268 272 279 285 291 292 287 286 288 285 277 273 268 260 258 258 255 252 251 249 251 255 254 248 244 241 241 243 240 235 236 243 248 240 232 228 228 232 236 239 241 244 245 245 242 240 241 241 243 245
175 175 164 147 136 133 124 117 110 106 111 112 105 98 87 74 65 56 49 42 34 27 20 14 4 348 333 320 309 298 289 286 286 286 285 283 283 285 285 288 288 286 286 286 286 283 277 268 260 257 256 255 253 252 249 250 255 258 257 254 249 245 243 241 240 244 252 257 244 231 228 228 229 234 238 241 243 245 247 246 244 243 242 243 245
194 208 208 194 192 192 178 145 123 119 119 116 110 100 91 79 63 51 43 36 31 26 21 16 13 5 353 339 328 319 311 309 306 300 298 296 294 290 291 294 292 290 290 289 288 286 279 272 265 262 260 259 259 260 259 257 257 259 262 265 262 255 247 242 242 247 253 255 247 236 233 231 229 231 235 240 244 245 245 247 249 246 244 244 243
199 218 229 225 231 239 238 231 217 181 144 126 112 101 92 82 63 47 38 31 27 23 21 19 16 13 7 356 341 331 323 317 313 307 300 296 294 291 292 296 297 296 293 291 291 287 285 285 279 271 268 264 264 267 269 269 265 264 267 269 268 266 261 251 246 247 249 250 247 242 238 235 232 231 232 235 240 243 243 245 250 249 246 246 242
205 224 232 233 241 250 256 257 261 263 239 186 122 100 88 80 55 32 26 21 18 17 15 14 14 13 11 6 356 341 331 320 311 306 299 295 294 292 289 287 290 294 296 296 294 285 286 295 291 282 275 271 271 269 270 273 270 269 274 277 272 268 262 254 248 245 243 243 243 241 238 236 235 234 232 232 235 240 242 243 248 248 246 246 244
223 233 231 230 236 243 253 258 264 270 272 281 287 311 352 16 17 12 13 11 8 9 7 5 5 5 4 4 2 352 345 337 321 312 305 301 295 291 288 281 275 282 290 293 290 283 281 285 287 292 291 282 280 279 281 283 277 274 278 279 275 271 264 254 244 240 240 238 237 236 234 233 234 235 234 233 233 237 240 241 242 245 246 246 245
235 238 233 231 233 235 243 250 257 264 270 280 290 295 304 311 322 336 349 356 359 358 357 358 357 357 357 357 358 354 348 344 337 329 322 314 306 298 291 282 270 270 276 283 287 284 281 281 276 276 281 278 280 284 282 276 271 271 271 268 269 271 269 261 249 240 242 243 240 238 234 230 231 233 234 233 233 235 238 240 240 241 245 247 245
238 241 239 236 235 234 237 243 247 254 259 265 277 288 294 297 301 310 325 339 344 345 346 347 347 349 349 349 352 350 345 344 339 335 332 324 315 303 289 283 277 272 271 274 279 279 280 283 275 270 272 272 273 276 275 273 271 271 271 269 268 268 267 266 259 253 251 251 249 246 243 237 234 233 233 233 233 234 237 239 240 240 242 245 245
238 242 243 242 241 238 237 240 243 246 250 253 258 271 283 290 295 302 312 322 329 333 334 336 339 343 344 344 344 341 341 342 334 329 329 323 320 312 294 285 282 281 279 276 276 277 278 282 283 284 283 279 279 281 282 282 279 275 276 275 272 270 269 270 268 266 262 257 256 255 251 247 244 240 238 236 235 236 237 238 239 240 241 243 244
239 241 243 244 244 242 240 240 242 244 246 249 253 260 270 278 287 296 302 308 315 321 326 329 332 336 339 339 337 334 335 335 331 325 318 312 317 318 308 300 291 286 285 281 280 283 285 284 284 285 284 282 285 286 285 282 275 271 272 273 273 273 274 274 272 272 271 264 258 258 256 253 250 248 245 242 240 240 240 239 239 240 241 242 243
240 241 242 243 243 242 241 239 240 244 246 249 252 258 267 276 287 294 297 297 300 305 313 318 322 326 329 331 330 328 328 328 329 326 307 297 303 297 290 291 288 286 287 286 284 285 288 289 288 287 287 286 285 283 280 277 274 273 271 270 272 273 273 272 268 267 270 266 259 257 258 255 253 252 252 248 245 243 243 243 242 242 242 242 242
240 241 240 241 242 241 240 239 239 243 247 250 254 258 265 275 287 296 298 298 297 299 304 309 313 317 320 323 324 324 324 324 324 322 311 301 299 289 283 285 287 289 290 292 291 289 291 293 295 295 295 291 289 290 288 283 281 279 277 275 274 272 271 269 267 266 267 267 263 259 258 257 254 254 255 255 250 246 245 245 245 244 243 242 241
238 241 242 241 241 239 237 237 239 243 248 252 256 260 267 277 287 295 300 300 299 300 301 303 307 310 313 317 319 319 321 320 318 318 310 299 296 293 289 289 291 291 291 293 293 291 291 293 295 296 295 294 294 296 296 295 293 289 284 281 277 274 272 268 267 266 264 266 268 263 257 256 256 255 255 256 255 252 248 246 247 247 244 243 242
240 240 242 241 237 236 236 237 239 243 247 252 256 260 267 276 283 291 296 298 298 298 299 300 302 305 309 312 314 315 316 316 315 312 304 297 296 294 290 287 287 285 284 285 285 285 284 285 288 292 294 296 296 296 297 298 297 293 288 283 277 272 269 267 265 264 263 268 273 270 260 255 256 255 253 254 255 255 253 249 247 247 245 244 244
245 242 243 243 238 235 235 237 239 242 246 249 253 258 263 270 276 283 288 292 293 293 295 297 299 302 306 308 309 310 312 312 312 310 305 303 302 299 294 290 285 281 279 280 282 283 283 282 284 287 289 291 292 294 296 296 294 294 292 288 283 275 269 268 267 266 267 271 276 277 269 258 254 254 253 252 252 254 255 252 249 248 246 245 244
251 250 247 243 237 233 234 236 239 243 246 247 250 254 259 263 269 276 281 285 286 287 290 291 294 299 302 304 306 307 309 308 307 305 304 303 301 298 295 292 287 283 281 282 283 283 283 284 284 284 285 285 286 287 290 291 290 292 293 292 290 282 272 269 268 266 267 269 273 279 278 266 255 252 251 251 251 250 252 253 251 248 247 246 244
253 253 247 240 234 230 231 235 238 240 243 245 248 251 254 258 264 270 275 279 280 282 285 287 291 296 300 302 304 305 306 305 304 303 302 300 297 293 290 285 281 281 280 280 280 279 281 283 283 283 283 283 282 284 286 286 285 287 286 281 278 277 271 266 265 265 265 266 268 271 277 275 263 255 251 251 250 249 248 250 251 250 247 245 244
254 251 248 245 237 230 228 230 233 236 240 242 244 247 250 254 260 266 271 274 275 278 283 287 292 296 299 302 302 302 303 303 302 302 301 299 297 295 293 287 280 277 276 275 275 276 277 277 277 279 281 280 280 281 282 279 277 278 277 274 276 279 278 272 268 265 263 264 265 264 268 272 268 259 254 252 251 249 246 246 249 250 248 246 244
243 240 245 247 240 231 229 230 232 236 237 239 242 244 246 251 258 264 268 270 272 277 283 289 294 297 300 301 300 301 302 301 299 299 299 298 296 294 292 289 284 278 273 270 269 270 272 273 273 275 275 274 274 275 276 276 276 277 277 278 279 280 280 276 272 269 264 264 266 265 263 262 261 260 259 256 255 253 249 247 246 248 248 246 244
230 238 249 253 246 237 234 234 235 235 236 240 242 242 244 250 256 261 265 268 273 279 284 291 295 296 298 299 299 301 303 304 304 304 305 304 301 297 293 289 286 282 278 275 272 269 268 268 269 270 270 270 271 270 272 274 276 277 277 277 277 276 275 273 272 269 264 260 261 261 260 258 256 257 257 254 253 255 252 248 247 249 249 246 244
246 257 259 257 251 241 234 232 230 229 233 239 240 240 244 250 254 258 264 269 276 282 287 292 293 291 292 294 296 299 302 304 305 307 309 310 309 307 303 298 293 288 283 280 276 273 269 267 267 267 266 268 270 269 269 271 273 275 275 273 273 271 269 268 267 266 261 259 262 262 260 257 254 256 258 254 249 252 254 251 248 249 250 248 246
258 265 259 250 246 240 231 227 227 228 233 237 239 241 245 248 251 257 264 272 280 285 287 291 293 291 291 293 294 297 300 304 308 309 310 310 309 308 307 304 301 296 291 287 283 279 273 267 264 263 262 264 266 265 264 266 269 271 272 271 269 267 266 265 266 267 265 261 263 265 262 257 251 253 257 257 252 252 257 255 247 242 245 247 248
260 263 260 250 243 238 230 226 229 232 233 235 238 240 243 247 253 261 271 278 283 285 286 290 293 293 292 292 292 296 300 304 307 307 306 307 307 306 305 303 299 296 294 292 288 284 280 275 270 267 264 262 263 264 262 263 267 270 270 269 267 266 266 264 263 264 263 259 257 262 263 259 251 250 252 253 252 253 258 257 246 234 237 242 245
260 258 256 249 242 234 227 224 227 230 231 232 234 237 242 250 259 269 277 282 286 288 289 292 294 293 294 295 297 300 303 305 305 305 305 307 306 305 304 301 298 294 291 287 279 274 276 275 274 272 269 264 262 263 262 260 261 262 263 265 266 266 267 266 263 262 261 257 253 255 260 259 252 251 251 248 248 248 255 259 250 236 232 237 241
251 242 240 244 240 230 222 221 223 225 225 225 228 235 246 256 267 276 281 286 289 289 289 291 293 292 292 295 297 299 302 304 303 304 305 305 304 304 303 301 298 294 288 281 273 267 265 263 259 256 254 253 253 254 252 249 249 248 251 258 263 265 267 267 265 263 261 257 251 248 255 259 253 251 251 246 245 248 251 261 260 245 234 237 244
241 236 235 238 232 224 219 217 218 217 215 217 228 243 254 262 270 277 282 284 282 280 282 286 288 286 286 290 294 297 301 303 302 302 303 303 302 303 302 298 295 290 284 281 277 272 269 268 265 260 256 253 252 250 248 246 244 243 246 254 259 259 262 263 264 264 260 255 251 246 251 256 252 251 253 248 245 249 249 256 262 254 243 240 245
234 233 234 230 223 219 217 214 211 209 210 217 233 247 255 262 269 275 279 279 277 278 281 284 286 286 286 289 295 301 303 303 302 302 302 301 301 301 299 296 293 287 283 282 280 277 275 274 274 272 270 267 264 261 257 253 249 243 242 248 254 256 258 259 260 263 262 256 251 246 248 253 250 247 251 250 247 250 253 254 258 260 256 248 244
231 229 230 227 222 218 215 211 207 207 212 223 234 243 252 261 269 276 277 276 278 281 283 286 287 288 287 289 296 301 303 301 300 299 299 299 300 301 299 294 289 286 284 283 281 280 278 275 273 273 274 275 275 273 268 264 260 252 245 246 249 251 254 256 256 258 260 256 250 242 244 249 249 245 244 246 248 252 255 257 260 262 260 251 245